This demonstration page uses our WeatherBlox Daily Observations layout. Learn more.

Left ArrowRight Arrow

40.97296, -117.73568

Hourly Observations for August 6, 2016

Temp ( °F °C ) Dew Point ( °F °C ) Humidity (%) Winds ( mph kmh ) Pressure ( in mb ) Visibility ( mi km ) Precip ( " mm )
12:56 am 00:56 Clear 72 22.2 13 -10.6 10 10 SSW 6 9 29.76 1008 10 16 0.00 0.00
1:56 am 01:56 Clear 66 18.9 16 -8.9 14 14 E 6 9 29.77 1008 10 16 0.00 0.00
2:56 am 02:56 Clear 64 17.8 12 -11.1 13 13 SSW 9 15 29.77 1008 10 16 0.00 0.00
3:56 am 03:56 Clear 63 17.2 11 -11.7 13 13 S 12 19 29.78 1008 10 16 0.00 0.00
4:56 am 04:56 Clear 59 15 13 -10.6 16 16 SSW 13 20 29.80 1009 10 16 0.00 0.00
5:56 am 05:56 Sunny 60 15.6 15 -9.4 17 17 SSE 13 20 29.80 1009 10 16 0.00 0.00
6:56 am 06:56 Sunny 65 18.3 16 -8.9 15 15 S 10 17 29.81 1010 10 16 0.00 0.00
7:56 am 07:56 Sunny 70 21.1 16 -8.9 12 12 S 13 20 29.83 1010 10 16 0.00 0.00
8:56 am 08:56 Sunny 74 23.3 18 -7.8 12 12 SSE 10 17 29.83 1010 10 16 0.00 0.00
9:56 am 09:56 Sunny 77 25 22 -5.6 13 13 Calm 29.82 1010 10 16 0.00 0.00
10:56 am 10:56 Sunny 81 27.2 24 -4.4 12 12 S 7 11 29.81 1009 10 16 0.00 0.00
11:56 am 11:56 Sunny 84 28.9 28 -2.2 13 13 VRB 3 6 29.79 1009 10 16 0.00 0.00
12:56 pm 12:56 Sunny 87 30.6 20 -6.7 8 8 VRB 7 11 29.77 1008 10 16 0.00 0.00
1:56 pm 13:56 Sunny 89 31.7 18 -7.8 7 7 undefined N/A 29.76 1008 10 16 0.00 0.00
2:56 pm 14:56 Sunny 90 32.2 17 -8.3 7 7 SSW 13 20 29.74 1007 10 16 0.00 0.00
3:56 pm 15:56 Sunny 90 32.2 16 -8.9 6 6 W 8 13 29.72 1006 10 16 0.00 0.00
4:56 pm 16:56 Sunny 90 32.2 12 -11.1 5 5 W 10 17 29.70 1006 10 16 0.00 0.00
5:56 pm 17:56 Sunny 89 31.7 13 -10.6 6 6 WSW 14 22 29.69 1006 10 16 0.00 0.00
6:56 pm 18:56 Sunny 86 30 14 -10 7 7 SW 14 22 29.68 1005 10 16 0.00 0.00
7:56 pm 19:56 Sunny 76 24.4 14 -10 9 9 WSW 7 11 29.69 1006 10 16 0.00 0.00
8:56 pm 20:56 Clear 69 20.6 10 -12.2 10 10 WSW 13 20 29.69 1005 10 16 0.00 0.00
9:56 pm 21:56 Clear 66 18.9 17 -8.3 15 15 Calm 29.71 1006 10 16 0.00 0.00
10:56 pm 22:56 Clear 62 16.7 19 -7.2 19 19 SE 3 6 29.71 1006 10 16 0.00 0.00
11:56 pm 23:56 Clear 58 14.4 19 -7.2 22 22 SSE 8 13 29.71 1006 10 16 0.00 0.00

Powered by AerisWeather